Time,TemperatureF,DewpointF,PressureIn,WindDirection,WindDirectionDegrees,WindSpeedMPH,WindSpeedGustMPH,Humidity,HourlyPrecipIn,Conditions,Clouds,dailyrainin,SoftwareType,DateUTC
2013-07-23 00:32:00,69.0,68.0,29.82,WNW,294,0.0,3.0,96,0.00,,,0.97,,2013-07-23 04:32:00,
2013-07-23 00:43:00,69.0,68.0,29.82,WNW,295,0.0,2.0,96,0.00,,,0.97,,2013-07-23 04:43:00,
2013-07-23 00:53:00,69.0,68.0,29.81,WNW,295,0.0,0.0,96,0.00,,,0.97,,2013-07-23 04:53:00,
2013-07-23 01:02:00,68.0,67.0,29.81,WNW,295,0.0,0.0,96,0.00,,,0.97,,2013-07-23 05:02:00,
2013-07-23 01:11:00,68.0,67.0,29.81,WNW,295,0.0,0.0,96,0.00,,,0.97,,2013-07-23 05:11:00,
2013-07-23 01:33:00,68.0,67.0,29.80,WNW,288,1.0,4.0,96,0.00,,,0.97,,2013-07-23 05:33:00,
2013-07-23 01:44:00,69.0,68.0,29.80,West,281,0.0,3.0,96,0.00,,,0.97,,2013-07-23 05:44:00,
2013-07-23 01:52:00,69.0,68.0,29.80,West,263,0.0,2.0,96,0.00,,,0.97,,2013-07-23 05:52:00,
2013-07-23 02:01:00,69.0,68.0,29.80,West,263,0.0,2.0,96,0.00,,,0.97,,2013-07-23 06:01:00,
2013-07-23 02:33:00,69.0,68.0,29.81,West,261,0.0,6.0,95,0.00,,,0.97,,2013-07-23 06:33:00,
2013-07-23 02:42:00,69.0,68.0,29.81,WSW,255,1.0,3.0,95,0.00,,,0.97,,2013-07-23 06:42:00,
2013-07-23 03:02:00,68.0,67.0,29.80,West,281,0.0,5.0,95,0.00,,,0.97,,2013-07-23 07:02:00,
2013-07-23 03:33:00,68.0,67.0,29.79,WSW,257,0.0,2.0,96,0.00,,,0.97,,2013-07-23 07:33:00,
2013-07-23 03:42:00,68.0,67.0,29.79,SW,229,0.0,3.0,95,0.00,,,0.97,,2013-07-23 07:42:00,
2013-07-23 04:43:00,68.0,67.0,29.78,South,190,1.0,3.0,96,0.02,,,0.99,,2013-07-23 08:43:00,
2013-07-23 04:52:00,68.0,67.0,29.78,SSW,199,0.0,3.0,96,0.02,,,0.99,,2013-07-23 08:52:00,
2013-07-23 05:11:00,68.0,67.0,29.79,West,275,0.0,1.0,96,0.02,,,0.99,,2013-07-23 09:11:00,
2013-07-23 06:02:00,68.0,67.0,29.79,West,269,1.0,5.0,96,0.00,,,0.99,,2013-07-23 10:02:00,
2013-07-23 07:02:00,67.0,66.0,29.80,WNW,283,1.0,3.0,95,0.00,,,0.99,,2013-07-23 11:02:00,
2013-07-23 07:43:00,67.0,66.0,29.81,West,265,1.0,3.0,96,0.00,,,0.99,,2013-07-23 11:43:00,
2013-07-23 08:02:00,67.0,66.0,29.82,WNW,292,1.0,4.0,95,0.00,,,0.99,,2013-07-23 12:02:00,
2013-07-23 08:11:00,67.0,66.0,29.82,NW,305,0.0,4.0,95,0.00,,,0.99,,2013-07-23 12:11:00,
2013-07-23 08:43:00,68.0,67.0,29.83,West,272,2.0,4.0,95,0.00,,,0.99,,2013-07-23 12:43:00,
2013-07-23 09:32:00,69.0,67.0,29.83,WNW,295,0.0,1.0,93,0.00,,,0.99,,2013-07-23 13:32:00,
2013-07-23 09:52:00,69.0,67.0,29.82,West,262,1.0,2.0,92,0.00,,,0.99,,2013-07-23 13:52:00,
2013-07-23 10:02:00,70.0,67.0,29.82,WNW,300,1.0,4.0,89,0.00,,,0.99,,2013-07-23 14:02:00,
2013-07-23 10:33:00,70.0,67.0,29.82,NW,304,0.0,3.0,90,0.00,,,0.99,,2013-07-23 14:33:00,
2013-07-23 10:44:00,70.0,67.0,29.82,NW,304,0.0,3.0,90,0.00,,,0.99,,2013-07-23 14:44:00,
2013-07-23 10:53:00,70.0,67.0,29.82,NW,304,0.0,3.0,90,0.00,,,0.99,,2013-07-23 14:53:00,
2013-07-23 11:03:00,70.0,67.0,29.82,NW,304,0.0,3.0,90,0.00,,,0.99,,2013-07-23 15:03:00,
2013-07-23 13:32:00,78.0,68.0,29.82,WNW,297,2.0,6.0,72,0.00,,,0.98,,2013-07-23 17:32:00,
2013-07-23 13:42:00,79.0,70.0,29.81,WNW,296,1.0,5.0,75,0.00,,,0.98,,2013-07-23 17:42:00,
2013-07-23 14:04:00,79.0,68.0,29.81,West,267,3.0,7.0,69,0.00,,,0.98,,2013-07-23 18:04:00,
2013-07-23 14:35:00,80.0,70.0,29.79,SE,135,1.0,4.0,72,0.00,,,0.98,,2013-07-23 18:35:00,
2013-07-23 14:48:00,79.0,68.0,29.79,SW,217,2.0,7.0,70,0.00,,,0.98,,2013-07-23 18:48:00,
2013-07-23 15:03:00,80.0,68.0,29.79,WSW,256,2.0,7.0,68,0.00,,,0.98,,2013-07-23 19:03:00,
2013-07-23 15:15:00,80.0,69.0,29.79,WNW,292,2.0,7.0,70,0.00,,,0.98,,2013-07-23 19:15:00,
2013-07-23 15:46:00,81.0,69.0,29.78,SSE,157,2.0,7.0,67,0.00,,,0.46,,2013-07-23 19:46:00,
2013-07-23 15:54:00,81.0,69.0,29.77,WNW,284,2.0,9.0,66,0.00,,,0.46,,2013-07-23 19:54:00,
2013-07-23 16:14:00,81.0,69.0,29.77,WNW,296,2.0,7.0,68,0.00,,,0.46,,2013-07-23 20:14:00,
2013-07-23 16:56:00,81.0,70.0,29.75,West,272,1.0,5.0,70,0.00,,,0.08,,2013-07-23 20:56:00,
2013-07-23 17:47:00,81.0,70.0,29.76,WNW,301,1.0,6.0,69,0.00,,,0.08,,2013-07-23 21:47:00,
2013-07-23 17:55:00,81.0,69.0,29.76,WNW,294,1.0,7.0,67,0.00,,,0.08,,2013-07-23 21:55:00,
2013-07-23 18:06:00,81.0,69.0,29.76,WSW,248,3.0,4.0,66,0.00,,,0.08,,2013-07-23 22:06:00,
2013-07-23 18:57:00,79.0,69.0,29.75,WNW,297,0.0,1.0,71,0.00,,,0.05,,2013-07-23 22:57:00,
2013-07-23 20:10:00,66.0,65.0,29.78,NW,316,1.0,3.0,95,0.30,,,0.35,,2013-07-24 00:10:00,
2013-07-23 20:34:00,66.0,65.0,29.78,SW,219,1.0,4.0,95,0.14,,,0.40,,2013-07-24 00:34:00,
2013-07-23 20:49:00,67.0,66.0,29.80,West,275,2.0,4.0,95,0.12,,,0.41,,2013-07-24 00:49:00,
2013-07-23 20:55:00,67.0,66.0,29.79,SW,219,2.0,4.0,95,0.11,,,0.43,,2013-07-24 00:55:00,
2013-07-23 21:04:00,66.0,64.0,29.78,South,181,2.0,5.0,94,0.12,,,0.45,,2013-07-24 01:04:00,
2013-07-23 21:44:00,65.0,64.0,29.76,WNW,293,0.0,2.0,95,0.05,,,0.47,,2013-07-24 01:44:00,
2013-07-23 21:57:00,65.0,64.0,29.76,WNW,293,0.0,2.0,95,0.05,,,0.47,,2013-07-24 01:57:00,
2013-07-23 22:18:00,65.0,64.0,29.76,WNW,293,0.0,0.0,95,0.01,,,0.47,,2013-07-24 02:18:00,
2013-07-23 22:47:00,65.0,64.0,29.78,WNW,293,0.0,1.0,96,0.00,,,0.47,,2013-07-24 02:47:00,
2013-07-23 23:46:00,64.0,63.0,29.80,NNE,18,0.0,0.0,96,0.00,,,0.46,,2013-07-24 03:46:00,